Regional Weather Roundup
Issued by NWS

Home | Current Version | Previous Version | Graphics & Text | Print | Product List | Glossary On
Versions: 1 2 3 4 5 6 7 8 9 10 11 12 13 14 15 16 17 18 19 20 21 22 23 24 25 26 27 28 29 30 31 32 33 34 35 36 37 38 39 40 41 42 43 44 45 46 47 48 49 50
000
ASUS43 KBIS 030402
RWRND

NORTH DAKOTA REGIONAL WEATHER ROUNDUP
NATIONAL WEATHER SERVICE BISMARCK ND
1100 PM CDT THU JUL 02 2015

NOTE: "FAIR" INDICATES FEW OR NO CLOUDS BELOW 12,000 FEET WITH NO
SIGNIFICANT WEATHER AND/OR OBSTRUCTIONS TO VISIBILITY.


NDZ001>003-009>011-017-030500-
NORTHWEST NORTH DAKOTA

CITY           SKY/WX    TMP DP  RH WIND       PRES   REMARKS
WILLISTON      CLEAR     73  62  68 N7        30.02R
MINOT          CLOUDY    68  64  87 SW7       29.97R FOG
MINOT AFB      MOCLDY    65  65 100 W7        29.96R HAZE
$$

NDZ018>021-031>035-040>046-030500-
SOUTHWEST NORTH DAKOTA

CITY           SKY/WX    TMP DP  RH WIND       PRES   REMARKS
BISMARCK       CLOUDY    66  63  90 CALM      29.99R FOG
DICKINSON      CLEAR     66  60  81 SE5       30.03R HAZE
GARRISON         N/A     65  63  93 NW7       29.99R
HETTINGER ARPT CLEAR     63  59  87 NW3       30.06R FOG
$$

NDZ004>008-012>016-024-026-027-054-030500-
NORTHEAST NORTH DAKOTA

CITY           SKY/WX    TMP DP  RH WIND       PRES   REMARKS
GRAND FORKS    CLOUDY    67  64  90 SW7       29.88S
GRND FRKS AFB  PTCLDY    65  62  91 SW5       29.90S
DEVILS LAKE    CLEAR     66  61  82 W7        29.92S
$$

NDZ022-023-025-028>030-036>039-047>053-030500-
SOUTHEAST NORTH DAKOTA

CITY           SKY/WX    TMP DP  RH WIND       PRES   REMARKS
FARGO          CLEAR     68  55  63 S9        29.93S
JAMESTOWN      PTCLDY    68  64  87 CALM      29.95R
$$



USA.gov is the U.S. government's official web portal to all federal, state and local government web resources and services.